Location: Navalespino
(40.5894°N, 4.2660°W)
Time: 18:54:14
(UTC+00:00)

Resurs 01 Rocket - Pass Details

Date: 18 April 2024
Orbit: 631 x 640 km, 97.8° (Epoch: 17 May)

Event Time Altitude Azimuth Distance (km) Brightness Sun altitude
Exits shadow 21:16:26 - 214° (SW) 2,216 4.3 -23.6°
Reaches altitude 10° 21:17:05 10° 220° (SW) 2,018 4.2 -23.7°
Maximum altitude 21:20:18 20° 267° (W) 1,486 4.0 -24.2°
Drops below altitude 10° 21:23:32 10° 314° (NW) 2,033 5.3 -24.6°
Sets 21:26:17 0° 332° (NNW) 2,949 6.2 -25.0°
